Regional Weather Roundup
Issued by NWS

Home | Current Version | Previous Version | Text Only | Print | Product List | Glossary On
Versions: 1 2 3 4 5 6 7 8 9 10 11 12 13 14 15 16 17 18 19 20 21 22 23 24 25 26 27 28 29 30 31 32 33 34 35 36 37 38 39 40 41 42 43 44 45 46 47 48 49 50
000
ASUS44 KFWD 250703
RWRTX
NORTH TEXAS HOURLY WEATHER ROUNDUP
NATIONAL WEATHER SERVICE FORT WORTH TX
200 AM CDT SUN SEP 25 2016

NOTE: "FAIR" INDICATES FEW OR NO CLOUDS BELOW 12,000 FEET WITH NO
SIGNIFICANT WEATHER AND/OR OBSTRUCTIONS TO VISIBILITY.

TXZ118-119-250800-
DALLAS/FORT WORTH METROPLEX

CITY           SKY/WX    TMP DP  RH WIND       PRES   REMARKS
DFW AIRPORT    MOCLDY    77  71  82 S7        29.96F
DALLAS LOVE    CLOUDY    79  71  76 SE9       29.97S
FTW MEACHAM    CLOUDY    78  71  79 SE8       29.96S
DAL-EXECUTIVE  CLOUDY    74  73  97 SE3       29.97S
FTW-ALLIANCE   LGT RAIN  76  71  85 S7        29.96S
FTW-NAS-JRB    LGT RAIN  78  71  79 SE6       29.97R
FTW-SPINKS     CLOUDY    75  71  88 SE6       29.98S
ARLINGTON      CLOUDY    75  72  90 S5        29.97S
GRAND PRAIRIE  CLOUDY    75  72  88 SE3       29.98S
ADDISON        CLOUDY    78  73  85 S10       29.99S
MESQUITE       MOCLDY    75  70  84 SE5       29.98S
LANCASTER      PTCLDY    76  70  82 SE5       29.99R
$$

TXZ091>094-102>105-117-120-121-131>134-250800-
NORTH CENTRAL TEXAS

CITY           SKY/WX    TMP DP  RH WIND       PRES   REMARKS
SHRMAN/DENISON NOT AVBL
GAINESVILLE      N/A     75  71  89 S6        30.00R
BOWIE          CLOUDY    69  67  95 NW5       30.02S
BRIDGEPORT     LGT RAIN  72  72 100 N5        30.02R
DECATUR        CLOUDY    74  67  77 W13G18    30.00R
DENTON         CLOUDY    75  71  87 SE7       29.96F
MCKINNEY       CLOUDY    78  70  76 S7        29.98S
GREENVILLE     CLOUDY    75  68  78 SE5       29.99S
ROCKWALL       MOCLDY    77  70  78 S5        29.97S
TERRELL        PTCLDY    76  70  82 SE5       29.98F
WAXAHACHIE     MOCLDY    73  73 100 SE3       29.99R
CLEBURNE       CLOUDY    75  75 100 SE6       29.99S
GRANBURY       CLOUDY    74  68  81 W9        30.00R
$$

TXZ083>090-098>101-113>116-127>130-139>142-154-155-250800-
WESTERN NORTH TEXAS

CITY           SKY/WX    TMP DP  RH WIND       PRES   REMARKS
WICHITA FALLS  LGT RAIN  69  68  96 E7        29.98F
WF-KICKAPOO    LGT RAIN  70  67  92 E5        30.00S
VERNON         CLOUDY    72  67  87 S5        30.02R
ABILENE        TSTM      67  66  97 CALM      30.01F
ABILENE-DYESS  LGT RAIN  67  65  93 N6        29.99F
CISCO          DRIZZLE   68  66  94 CALM      30.02F
MINERAL WELLS  RAIN      71  70  96 NE6       29.99S FOG
STEPHENVILLE   CLOUDY    70  66  86 CALM      30.03F
COMANCHE       LGT RAIN  69  69 100 NE7       30.01F
BROWNWOOD      CLOUDY    72  64  78 E3        29.99F
COLEMAN        TSTM      67  65  91 NE12      30.00F
$$

TXZ143>147-156>162-174-175-250800-
CENTRAL TEXAS

CITY           SKY/WX    TMP DP  RH WIND       PRES   REMARKS
WACO           PTCLDY    76  74  93 SE9       29.97R
WACO-MCGREGOR  CLOUDY    76  74  93 SE9       29.97S
HILLSBORO      MOCLDY    74  72  94 SE7       29.98R
CORSICANA      CLEAR     76  71  85 SE6       29.99S
MEXIA          CLEAR     73  71  95 S7        29.97S
HEARNE         CLEAR     75  74  95 CALM      29.97S
CAMERON        CLOUDY    75  74  97 CALM      29.97R
TEMPLE         PTCLDY    76  74  93 SE8       29.97R
KILLEEN        MOCLDY    73  73  97 SE5       29.98R
KILLEEN-SKYLRK CLOUDY    75  73  93 S6        29.99R
FORT HOOD      CLOUDY    74  72  95 S6        29.96R
HAMILTON       CLOUDY    74  74 100 S6        30.01R
LAMPASAS       CLOUDY    76  74  94 E3        29.97F
$$

TXZ095>097-106>112-122>126-135>138-148>153-164>167-250800-
EAST TEXAS

CITY           SKY/WX    TMP DP  RH WIND       PRES   REMARKS
PARIS          PTCLDY    73  66  78 SE7       30.00F
SULPHUR SPRNGS CLEAR     76  69  80 CALM      30.02R
MOUNT PLEASANT CLOUDY    71  67  87 E3        30.02S
GILMER         CLEAR     72  69  89 CALM      30.01S
MINEOLA        PTCLDY    73  70  88 SE3       30.00S
TYLER          CLEAR     75  72  90 SE6       30.00F
LONGVIEW       CLEAR     71  70  96 CALM      30.00S
MARSHALL       CLEAR     70  67  90 CALM      30.04S
ATHENS         CLEAR     70  70 100 CALM      29.98S
PALESTINE      CLEAR     75  73  95 E5        30.00S
JACKSONVILLE   PTCLDY    74  73  98 CALM      30.02F
HENDERSON      PTCLDY    70  69  97 CALM      30.02S
CENTER         SUNNY     71  70  95 CALM      30.02S
NACOGDOCHES    PTCLDY    72  70  94 SE3       29.99F
LUFKIN         PTCLDY    73  71  93 E5        29.99F
$$

SUPPLEMENTAL OBSERVATIONS (CENTRAL)

CITY           SKY/WX    TMP DP  RH WIND       PRES   REMARKS
$$

SUPPLEMENTAL OBSERVATIONS (WEST)

CITY           SKY/WX    TMP DP  RH WIND       PRES   REMARKS
$$

SUPPLEMENTAL OBSERVATIONS (EAST)

CITY           SKY/WX    TMP DP  RH WIND       PRES   REMARKS
$$

SUPPLEMENTAL OBSERVATIONS ARE A COLLECTION OF AUTOMATED INSTRUMENTS
THAT ARE MAINTAINED BY A VARIETY OF FEDERAL AND STATE AGENCIES.
CERTAIN ELEMENTS...SUCH AS HUMIDITY VALUES AND SUSTAINED WIND
SPEEDS...MAY BE APPROXIMATED.





USA.gov is the U.S. government's official web portal to all federal, state and local government web resources and services.